TimeEDT,TemperatureF,Dew PointF,Humidity,Sea Level PressureIn,VisibilityMPH,Wind Direction,Wind SpeedMPH,Gust SpeedMPH,PrecipitationIn,Events,Conditions,WindDirDegrees,DateUTC
12:15 AM,75.2,71.6,89,30.24,10.0,Calm,Calm,-,N/A,,Clear,0,2013-07-04 04:15:00
12:35 AM,75.2,71.6,89,30.24,10.0,Calm,Calm,-,N/A,,Clear,0,2013-07-04 04:35:00
12:55 AM,75.2,71.6,89,30.23,10.0,Calm,Calm,-,N/A,,Clear,0,2013-07-04 04:55:00
1:15 AM,75.2,71.6,89,30.23,10.0,Calm,Calm,-,N/A,,Clear,0,2013-07-04 05:15:00
1:35 AM,75.2,71.6,89,30.23,10.0,Calm,Calm,-,N/A,,Clear,0,2013-07-04 05:35:00
1:55 AM,75.2,71.6,89,30.23,10.0,Calm,Calm,-,N/A,,Clear,0,2013-07-04 05:55:00
2:15 AM,75.2,71.6,89,30.23,10.0,Calm,Calm,-,N/A,,Clear,0,2013-07-04 06:15:00
2:35 AM,73.4,71.6,94,30.23,10.0,Calm,Calm,-,N/A,,Clear,0,2013-07-04 06:35:00
2:55 AM,73.4,71.6,94,30.23,10.0,Calm,Calm,-,N/A,,Clear,0,2013-07-04 06:55:00
3:15 AM,73.4,71.6,94,30.23,10.0,Calm,Calm,-,N/A,,Scattered Clouds,0,2013-07-04 07:15:00
3:35 AM,73.4,71.6,94,30.23,10.0,Calm,Calm,-,N/A,,Scattered Clouds,0,2013-07-04 07:35:00
3:55 AM,73.4,71.6,94,30.22,10.0,Calm,Calm,-,N/A,,Scattered Clouds,0,2013-07-04 07:55:00
4:15 AM,73.4,71.6,94,30.22,10.0,Calm,Calm,-,N/A,,Scattered Clouds,0,2013-07-04 08:15:00
4:35 AM,73.4,71.6,94,30.23,7.0,Calm,Calm,-,N/A,,Scattered Clouds,0,2013-07-04 08:35:00
4:55 AM,73.4,71.6,94,30.23,7.0,Calm,Calm,-,N/A,,Mostly Cloudy,0,2013-07-04 08:55:00
5:15 AM,73.4,71.6,94,30.23,10.0,Calm,Calm,-,N/A,,Overcast,0,2013-07-04 09:15:00
5:35 AM,73.4,71.6,94,30.24,10.0,Calm,Calm,-,N/A,,Overcast,0,2013-07-04 09:35:00
5:55 AM,73.4,71.6,94,30.24,10.0,Calm,Calm,-,N/A,,Overcast,0,2013-07-04 09:55:00
6:15 AM,73.4,71.6,94,30.24,10.0,SW,3.5,-,N/A,,Mostly Cloudy,220,2013-07-04 10:15:00
6:35 AM,73.4,71.6,94,30.25,10.0,Calm,Calm,-,N/A,,Mostly Cloudy,0,2013-07-04 10:35:00
6:55 AM,75.2,71.6,89,30.25,10.0,Calm,Calm,-,N/A,,Mostly Cloudy,0,2013-07-04 10:55:00
7:15 AM,75.2,71.6,89,30.25,7.0,Calm,Calm,-,N/A,,Mostly Cloudy,0,2013-07-04 11:15:00
7:35 AM,77.0,71.6,83,30.26,10.0,Calm,Calm,-,N/A,,Mostly Cloudy,0,2013-07-04 11:35:00
7:55 AM,77.0,71.6,83,30.26,10.0,Calm,Calm,-,N/A,,Mostly Cloudy,0,2013-07-04 11:55:00
8:15 AM,77.0,71.6,83,30.26,10.0,Calm,Calm,-,N/A,,Overcast,0,2013-07-04 12:15:00
8:35 AM,78.8,71.6,78,30.26,10.0,Calm,Calm,-,N/A,,Overcast,0,2013-07-04 12:35:00
8:55 AM,78.8,71.6,78,30.26,10.0,SW,4.6,-,N/A,,Mostly Cloudy,220,2013-07-04 12:55:00
9:15 AM,78.8,71.6,78,30.26,10.0,SW,8.1,-,N/A,,Mostly Cloudy,230,2013-07-04 13:15:00
9:35 AM,80.6,71.6,74,30.26,10.0,Calm,Calm,-,N/A,,Mostly Cloudy,0,2013-07-04 13:35:00
9:55 AM,80.6,71.6,74,30.26,10.0,Calm,Calm,-,N/A,,Overcast,0,2013-07-04 13:55:00
10:15 AM,80.6,71.6,74,30.26,10.0,Calm,Calm,-,N/A,,Mostly Cloudy,0,2013-07-04 14:15:00
10:35 AM,82.4,71.6,70,30.26,10.0,SSW,8.1,-,N/A,,Mostly Cloudy,210,2013-07-04 14:35:00
10:55 AM,82.4,71.6,70,30.25,10.0,Calm,Calm,-,N/A,,Mostly Cloudy,0,2013-07-04 14:55:00
11:35 AM,84.2,71.6,66,30.25,10.0,Calm,Calm,-,N/A,,Mostly Cloudy,0,2013-07-04 15:35:00
11:55 AM,84.2,71.6,66,30.25,10.0,Calm,Calm,-,N/A,,Scattered Clouds,0,2013-07-04 15:55:00
12:15 PM,82.4,71.6,70,30.25,10.0,SW,10.4,17.3,N/A,,Mostly Cloudy,220,2013-07-04 16:15:00
12:35 PM,84.2,71.6,66,30.25,10.0,SSW,10.4,16.1,N/A,,Mostly Cloudy,200,2013-07-04 16:35:00
12:55 PM,84.2,69.8,62,30.24,10.0,SW,6.9,-,N/A,,Scattered Clouds,220,2013-07-04 16:55:00
1:15 PM,86.0,71.6,62,30.24,10.0,SSW,5.8,-,N/A,,Scattered Clouds,210,2013-07-04 17:15:00
1:35 PM,87.8,71.6,58,30.23,10.0,Calm,Calm,-,N/A,,Scattered Clouds,0,2013-07-04 17:35:00
1:55 PM,86.0,69.8,58,30.23,10.0,SSW,8.1,-,N/A,,Scattered Clouds,200,2013-07-04 17:55:00
2:15 PM,86.0,71.6,62,30.23,10.0,SSW,8.1,-,N/A,,Scattered Clouds,200,2013-07-04 18:15:00
2:35 PM,87.8,71.6,58,30.22,10.0,SW,3.5,-,N/A,,Scattered Clouds,230,2013-07-04 18:35:00
2:55 PM,86.0,69.8,58,30.21,10.0,South,10.4,-,N/A,,Scattered Clouds,190,2013-07-04 18:55:00
3:15 PM,86.0,69.8,58,30.21,10.0,SW,10.4,16.1,N/A,,Mostly Cloudy,220,2013-07-04 19:15:00
3:35 PM,86.0,69.8,58,30.21,10.0,SW,4.6,16.1,N/A,,Scattered Clouds,220,2013-07-04 19:35:00
3:55 PM,86.0,71.6,62,30.20,10.0,SSW,8.1,-,N/A,,Scattered Clouds,210,2013-07-04 19:55:00
4:15 PM,86.0,71.6,62,30.20,10.0,SW,9.2,-,N/A,,Clear,220,2013-07-04 20:15:00
4:35 PM,86.0,69.8,58,30.20,10.0,SSW,8.1,-,N/A,,Scattered Clouds,200,2013-07-04 20:35:00
4:55 PM,87.8,69.8,55,30.19,10.0,SSW,3.5,-,N/A,,Scattered Clouds,210,2013-07-04 20:55:00
5:15 PM,87.8,69.8,55,30.19,10.0,SSW,8.1,-,N/A,,Scattered Clouds,200,2013-07-04 21:15:00
5:35 PM,86.0,69.8,58,30.18,10.0,SSW,11.5,-,N/A,,Scattered Clouds,210,2013-07-04 21:35:00
5:55 PM,86.0,69.8,58,30.18,10.0,Calm,Calm,-,N/A,,Scattered Clouds,0,2013-07-04 21:55:00
6:15 PM,86.0,69.8,58,30.18,10.0,SW,10.4,-,N/A,,Clear,220,2013-07-04 22:15:00
6:35 PM,84.2,69.8,62,30.18,10.0,Calm,Calm,-,N/A,,Scattered Clouds,0,2013-07-04 22:35:00
6:55 PM,86.0,69.8,58,30.18,10.0,South,10.4,-,N/A,,Scattered Clouds,190,2013-07-04 22:55:00
7:15 PM,84.2,69.8,62,30.18,10.0,SSW,6.9,-,N/A,,Clear,200,2013-07-04 23:15:00
7:35 PM,82.4,69.8,66,30.19,10.0,Calm,Calm,-,N/A,,Clear,0,2013-07-04 23:35:00
7:55 PM,82.4,69.8,66,30.19,10.0,Calm,Calm,-,N/A,,Clear,0,2013-07-04 23:55:00
8:15 PM,82.4,69.8,66,30.19,10.0,Calm,Calm,-,N/A,,Clear,0,2013-07-05 00:15:00
8:35 PM,80.6,69.8,70,30.20,10.0,Calm,Calm,-,N/A,,Clear,0,2013-07-05 00:35:00
8:55 PM,80.6,69.8,70,30.20,10.0,Calm,Calm,-,N/A,,Clear,0,2013-07-05 00:55:00
9:15 PM,78.8,69.8,74,30.20,10.0,Calm,Calm,-,N/A,,Clear,0,2013-07-05 01:15:00
9:35 PM,78.8,69.8,74,30.20,10.0,Calm,Calm,-,N/A,,Clear,0,2013-07-05 01:35:00
9:55 PM,78.8,69.8,74,30.21,10.0,Calm,Calm,-,N/A,,Clear,0,2013-07-05 01:55:00
10:15 PM,78.8,69.8,74,30.21,10.0,Calm,Calm,-,N/A,,Clear,0,2013-07-05 02:15:00
10:35 PM,77.0,68.0,74,30.21,10.0,Calm,Calm,-,N/A,,Clear,0,2013-07-05 02:35:00
10:55 PM,77.0,69.8,78,30.21,10.0,Calm,Calm,-,N/A,,Clear,0,2013-07-05 02:55:00
11:15 PM,77.0,69.8,78,30.21,10.0,Calm,Calm,-,N/A,,Clear,0,2013-07-05 03:15:00
11:35 PM,77.0,69.8,78,30.21,10.0,Calm,Calm,-,N/A,,Clear,0,2013-07-05 03:35:00
11:55 PM,77.0,69.8,78,30.22,10.0,Calm,Calm,-,N/A,,Clear,0,2013-07-05 03:55:00